Weather History for Santa Fe, NM

Change the Weather History Date:

Monday, October 28, 2013

  Actual Average Record
Temperature  
Mean Temperature 49 °F -  
Max Temperature 62 °F 54 °F 72 °F (2008)
Min Temperature 37 °F 28 °F 26 °F (2012)
Degree Days  
Heating Degree Days 16    
Moisture  
Dew Point 33 °F    
Average Humidity 58    
Maximum Humidity 93    
Minimum Humidity 25    
Precipitation  
Precipitation 0.00 in - - ()
Sea Level Pressure  
Sea Level Pressure 29.85 in    
Wind  
Wind Speed 5 mph (North)    
Max Wind Speed 9 mph    
Max Gust Speed -    
Visibility 10 miles    
Events      
Averages and records for this station are not official NWS values.
T = Trace of Precipitation, MM = Missing Value Source: NWS Daily Summary

Daily Weather History Graph

Daily Weather History Graph

Search for Another Location

Airport:

Trip Planner

Search our weather history database for the weather conditions in past years. The results will help you decide how hot, cold, wet, or windy it might be!

Date:

Astronomy

Oct. 28, 2013 Rise Set
Actual Time 7:22 AM MDT 6:12 PM MDT
Civil Twilight 6:56 AM MDT 6:39 PM MDT
Nautical Twilight 6:26 AM MDT 7:09 PM MDT
Astronomical Twilight 5:56 AM MDT 7:38 PM MDT
Moon 1:30 AM MDT (10/28) 2:45 PM MDT (10/28)
Length of Visible Light 11h 42m
Length of Day
10h 50m
Waning Crescent, 33% of the Moon is Illuminated
Oct 28
Waning Crescent
Nov 3
New
Nov 9
First Quarter
Nov 17
Full
Nov 25
Last Quarter

Hourly Weather History & Observations

Time (MDT) Temp. Windchill Dew Point Humidity Pressure Visibility Wind Dir Wind Speed Gust Speed Precip Events Conditions
12:53 AM 41.0 °F 37.1 °F 35.1 °F 79% 29.86 in 10.0 mi North 5.8 mph - N/A   Clear
1:53 AM 41.0 °F 38.0 °F 35.1 °F 79% 29.86 in 10.0 mi North 4.6 mph - N/A   Clear
2:53 AM 41.0 °F 35.8 °F 35.1 °F 79% 29.84 in 10.0 mi North 8.1 mph - N/A   Clear
3:53 AM 37.9 °F 32.7 °F 35.1 °F 89% 29.83 in 10.0 mi North 6.9 mph - N/A   Clear
4:53 AM 37.9 °F 34.4 °F 34.0 °F 86% 29.83 in 10.0 mi NNW 4.6 mph - N/A   Clear
5:53 AM 37.0 °F 33.3 °F 35.1 °F 93% 29.85 in 10.0 mi North 4.6 mph - N/A   Clear
6:53 AM 37.9 °F 34.4 °F 35.1 °F 89% 29.87 in 10.0 mi North 4.6 mph - N/A   Clear
7:53 AM 39.0 °F 34.8 °F 36.0 °F 89% 29.90 in 10.0 mi North 5.8 mph - N/A   Clear
8:53 AM 44.1 °F 41.5 °F 37.9 °F 79% 29.91 in 10.0 mi North 4.6 mph - N/A   Clear
9:53 AM 50.0 °F - 39.0 °F 66% 29.90 in 10.0 mi Calm Calm - N/A   Clear
10:53 AM 53.1 °F - 37.9 °F 57% 29.90 in 10.0 mi Calm Calm - N/A   Clear
11:53 AM 55.9 °F - 37.9 °F 51% 29.88 in 10.0 mi Calm Calm - N/A   Clear
12:53 PM 55.9 °F - 36.0 °F 47% 29.87 in 10.0 mi SW 5.8 mph - N/A   Clear
1:53 PM 57.9 °F - 34.0 °F 41% 29.83 in 10.0 mi WSW 6.9 mph - N/A   Clear
2:53 PM 61.0 °F - 33.1 °F 35% 29.81 in 10.0 mi WSW 9.2 mph - N/A   Clear
3:53 PM 61.0 °F - 27.0 °F 27% 29.82 in 10.0 mi WSW 6.9 mph - N/A   Clear
4:53 PM 61.0 °F - 25.0 °F 25% 29.81 in 10.0 mi WNW 5.8 mph - N/A   Clear
5:53 PM 57.9 °F - 28.9 °F 33% 29.83 in 10.0 mi Calm Calm - N/A   Clear
6:53 PM 54.0 °F - 30.9 °F 41% 29.86 in 10.0 mi East 4.6 mph - N/A   Clear
7:53 PM 50.0 °F - 33.1 °F 52% 29.87 in 10.0 mi ESE 5.8 mph - N/A   Clear
8:53 PM 51.1 °F - 28.0 °F 41% 29.85 in 10.0 mi SSE 6.9 mph - N/A   Clear
9:53 PM 50.0 °F - 27.0 °F 41% 29.86 in 10.0 mi Calm Calm - N/A   Clear
10:53 PM 50.0 °F - 26.1 °F 39% 29.85 in 10.0 mi ESE 9.2 mph - N/A   Clear
11:53 PM 50.0 °F - 26.1 °F 39% 29.83 in 10.0 mi ESE 5.8 mph - N/A   Clear